ECHOSTAR 19

Last updated on Tue Oct 08 2024 00:02:40 GMT+0000 (Coordinated Universal Time)

1 41893U 16079A 24281.22826972 -.00000127 00000+0 00000+0 0 9992 2 41893 0.0191 170.3997 0001491 17.7186 173.3452 1.00273104 28507
UTC large
Height (km)
Speed (km/s)
/
Latitude / Longitude
Inclination (degrees)
Orbital Period (minutes)
Azimuth
Elevation
Range (km)
Doppler Factor

Next 0 passes for location: London (51.5072 / 0.1276)

Sorry there are no passes over London.